Regional Weather Roundup
Issued by NWS

Home | Current Version | Previous Version | Text Only | Print | Product List | Glossary On
Versions: 1 2 3 4 5 6 7 8 9 10 11 12 13 14 15 16 17 18 19 20 21 22 23 24 25 26 27 28 29 30 31 32 33 34 35 36 37 38 39 40 41 42 43 44 45 46 47 48 49 50
576
ASUS43 KMKX 280900
RWRWI

WISCONSIN REGIONAL WEATHER ROUNDUP
NATIONAL WEATHER SERVICE MILWAUKEE/SULLIVAN WI
400 AM CDT TUE MAR 28 2017

NOTE: "FAIR" INDICATES FEW OR NO CLOUDS BELOW 12,000 FEET WITH NO
SIGNIFICANT WEATHER AND/OR OBSTRUCTIONS TO VISIBILITY.

WIZ001-002-006>008-014>016-023>028-281000-
NORTHWEST WISCONSIN

CITY           SKY/WX    TMP DP  RH WIND       PRES   REMARKS
SUPERIOR ARPT  CLEAR     25  24  99 CALM      30.09S
ASHLAND        CLEAR     23  22  96 CALM      30.09S
HAYWARD        CLEAR     27  24  89 N3        30.07S
SIREN          CLEAR     28  27  96 CALM      30.08R
CUMBERLAND     CLEAR     28  27  93 CALM      30.06S
RICE LAKE      CLEAR     28  28  99 CALM      30.08R
CHETEK         CLEAR     27  27  99 CALM      30.07R
LADYSMITH      CLEAR     29  27  95 NE3       30.07S
EAU CLAIRE     NOT AVBL
MENOMONIE      CLEAR     31  31  99 CALM      30.07R
NEW RICHMOND   CLEAR     31  31 100 CALM      30.06F FOG
OSCEOLA        CLEAR     30  30 100 CALM      30.10S
$$

WIZ003>005-009-010-017-018-281000-
NORTH CENTRAL WISCONSIN

CITY           SKY/WX    TMP DP  RH WIND       PRES   REMARKS
MANITOWISH WTR CLEAR     24  24 100 CALM      30.05R
ARBOR VITAE      N/A     27  26  96 CALM      30.04S FOG
WOODRUFF         N/A     27  26  96 CALM      30.04S FOG
RHINELANDER    CLEAR     24  24 100 CALM      30.05S
EAGLE RIVER    CLEAR     25  25 100 CALM      30.05R
LAND O LAKES   CLEAR     24  23  98 CALM      30.07R
PHILLIPS       CLEAR     24  23  99 CALM      30.05S
TOMAHAWK       CLEAR     23  22  95 CALM      30.06S
MEDFORD        CLEAR     29  28  99 CALM      30.04S FOG
MERRILL        CLEAR     24  24 100 CALM      30.05F
$$

WIZ029-030-035-036-043>047-281000-
CENTRAL WISCONSIN

CITY           SKY/WX    TMP DP  RH WIND       PRES   REMARKS
WAUSAU         MOCLDY    29  28  96 CALM      30.04S
MOSINEE        MOCLDY    34  34 100 CALM      30.06R
MARSHFIELD     PTCLDY    30  28  92 N3        30.03S FOG
STEVENS POINT  CLOUDY    37  37 100 CALM      30.05S
WAUPACA        CLOUDY    42  38  86 CALM      30.05F
WAUTOMA        CLOUDY    41  38  89 NE5       30.06S
WISC RAPIDS    CLOUDY    41  39  93 E3        30.06S
CAMP DOUGLAS   CLOUDY    41  39  93 CALM      30.04S
$$

WIZ011>013-019>022-031-037>040-048>050-281000-
NORTHEAST WISCONSIN

CITY           SKY/WX    TMP DP  RH WIND       PRES   REMARKS
ANTIGO         FOG       29  29 100 CALM      30.04S VSB 3/4
SHAWANO        FOG       33  32  96 CALM      30.06S VSB 1/2
OCONTO         PTCLDY    28  28  99 CALM      30.05S
STURGEON BAY   CLEAR     33  33 100 NW3       30.03R
GREEN BAY      PTCLDY    35  35 100 CALM      30.05S
MANITOWOC      NOT AVBL
APPLETON       CLOUDY    37  37 100 N5        30.04R WCI  34
CLINTONVILLE   PTCLDY    36  34  93 CALM      30.05S
OSHKOSH        CLOUDY    40  37  89 N5        30.04S
$$

WIZ032>034-041-042-053>061-281000-
SOUTHWEST WISCONSIN

CITY           SKY/WX    TMP DP  RH WIND       PRES   REMARKS
LA CROSSE      PTCLDY    35  34  96 N8        30.07R WCI  29
SPARTA         CLOUDY    39  38  95 CALM      30.07R
VIROQUA        CLOUDY    41  41  99 CALM      30.04R
BOSCOBEL       CLOUDY    46  42  86 CALM      30.05R
PRAIRIE DU CHI CLOUDY    44  42  91 NW3       30.04R
PLATTEVILLE    NOT AVBL
$$

WIZ056-057-062-063-064-067-068-281000-
SOUTH CENTRAL WISCONSIN

CITY           SKY/WX    TMP DP  RH WIND       PRES   REMARKS
REEDSBURG      CLOUDY    41  41 100 NE3       30.04R FOG
BARABOO/DELLS  CLOUDY    40  39  96 NE8       30.03S FOG
LONE ROCK      NOT AVBL
MINERAL POINT  FOG       45  45 100 N5        30.01R VSB 1/2
MADISON        CLOUDY    41  40  96 NE8       30.03S FOG
MIDDLETON      CLOUDY    43  43 100 NE7       30.03S
WATERTOWN      CLOUDY    40  39  97 NE6       30.03S
MONROE         FOG       43  43 100 NE7       30.00F VSB 3/4
JANESVILLE     CLOUDY    43  43 100 NE5       30.02R FOG
$$

WIZ051-052-058>065-066-070>072-281000-
SOUTHEAST WISCONSIN

CITY           SKY/WX    TMP DP  RH WIND       PRES   REMARKS
MILWAUKEE      CLOUDY    40  35  83 N9        30.02S WCI  34
WAUKESHA       CLOUDY    36  34  93 N3        30.03S
MILWAUKEE/TIMM CLOUDY    37  34  87 N8        30.04R WCI  31
RACINE         CLOUDY    39  34  82 N10       30.03S WCI  32
KENOSHA        CLOUDY    39  35  86 N7        30.02S WCI  34
FOND DU LAC    CLOUDY    40  36  86 N5        30.04S
SHEBOYGAN      CLOUDY    39  36  89 NW6       30.04R WCI  35
WEST BEND      CLOUDY    37  36  93 N6        30.03S WCI  33
JUNEAU         CLOUDY    39  37  91 CALM      30.04F
$$

LSZ147-162-281000-
LAKE SUPERIOR

STATION/POSITION TIME  TEMP    WIND        PRES    WAVE
                       AIR SEA DIR/SP/G            HT/PER
                 (UTC) (F)     (DEG/KT/KT) (MB)    (FT/S)
DEVILS ISLAND    0800   37     210/  5/  5 1018.9R
PORT WING        0840   27      CALM  /  3 1019.0R
SAXON HARBOR     0830   27     200/  4/  4 1018.6S
$$

LMZ867-665-643>646-281000-
LAKE MICHIGAN

STATION/POSITION TIME  TEMP    WIND        PRES    WAVE
                       AIR SEA DIR/SP/G            HT/PER
                 (UTC) (F)     (DEG/KT/KT) (MB)    (FT/S)
CHAMBERS ISLAND  0840   31      CALM  /  1 1016.9S
NORTHPORT PIER   0840   33      CALM  /  3 1017.6R
KEWAUNEE LAKESHO 0830   38     330/  3/  7 1016.8R
SHEBOYGAN LAKESH 0800   39     330/  8/ 10 1017.4R
PORT WASHINGTON  0840   39     320/  4/  6 1017.9S
MILWAUKEE LAKESH 0830   39     340/ 11/ 15   N/A
KENOSHA   LAKESH 0800   39     360/ 13/ 16 1016.3
$$

TC  - TEMPERATURE IN CELSIUS
VSB - VISIBILITY IN STATUTE MILES
WCI - WIND CHILL INDEX
HX  - HEAT INDEX





USA.gov is the U.S. government's official web portal to all federal, state and local government web resources and services.